CW5363 Weather Reports


Display with metric or nautical units.
time (UTC)temp
F
wind
direction
speed
MPH
gust
MPH
rain 1hr
in
rain 24hr
in
rain mn
in
humidity
%
barometer
mb
20260503221330 62 163 1.0 4.0 0.00 0.00 0.00 49 1014.7
20260503220851 62 177 2.0 5.0 0.00 0.00 0.00 49 1014.7
20260503220332 62 136 2.0 5.0 0.00 0.00 0.00 50 1014.7
20260503215823 62 140 1.0 5.0 0.00 0.00 0.00 49 1014.7
20260503215328 62 150 1.0 7.0 0.00 0.00 0.00 49 1014.7
20260503214830 62 211 3.0 7.0 0.00 0.00 0.00 49 1014.7
20260503214342 62 119 2.0 5.0 0.00 0.00 0.00 47 1014.7
20260503213842 62 244 0.0 5.0 0.00 0.00 0.00 49 1014.7
20260503213340 62 136 2.0 5.0 0.00 0.00 0.00 50 1015.0
20260503212826 62 312 1.0 4.0 0.00 0.00 0.00 48 1015.0
20260503212331 62 101 1.0 4.0 0.00 0.00 0.00 49 1015.0
20260503211831 62 123 0.0 5.0 0.00 0.00 0.00 48 1015.2
20260503211342 62 132 3.0 5.0 0.00 0.00 0.00 48 1015.2
20260503210842 62 107 2.0 5.0 0.00 0.00 0.00 47 1015.2
20260503210345 62 133 2.0 5.0 0.00 0.00 0.00 47 1015.2
20260503205829 62 134 2.0 6.0 0.00 0.00 0.00 47 1015.2
20260503205331 62 213 1.0 7.0 0.00 0.00 0.00 48 1015.2
20260503204850 63 116 3.0 7.0 0.00 0.00 0.00 47 1015.2
20260503204342 63 136 1.0 5.0 0.00 0.00 0.00 48 1015.2
20260503203843 63 209 2.0 6.0 0.00 0.00 0.00 47 1015.2
20260503203343 63 140 4.0 6.0 0.00 0.00 0.00 46 1015.5
20260503202829 64 150 3.0 6.0 0.00 0.00 0.00 44 1015.5
20260503202330 64 153 3.0 6.0 0.00 0.00 0.00 43 1015.5
20260503201829 64 190 3.0 5.0 0.00 0.00 0.00 42 1015.8
20260503201334 64 53 2.0 7.0 0.00 0.00 0.00 44 1015.8
20260503200855 64 138 3.0 7.0 0.00 0.00 0.00 44 1015.8
20260503200335 63 114 2.0 7.0 0.00 0.00 0.00 44 1015.9
20260503195837 63 137 3.0 7.0 0.00 0.00 0.00 43 1015.9
20260503195339 63 148 2.0 7.0 0.00 0.00 0.00 44 1015.9
20260503194838 63 162 4.0 7.0 0.00 0.00 0.00 41 1016.0
20260503194404 64 162 3.0 7.0 0.00 0.00 0.00 43 1016.0
20260503193845 64 85 2.0 7.0 0.00 0.00 0.00 46 1016.0
20260503193344 64 147 3.0 6.0 0.00 0.00 0.00 45 1016.4
20260503192827 63 166 2.0 7.0 0.00 0.00 0.00 44 1016.4
20260503192328 64 202 3.0 6.0 0.00 0.00 0.00 42 1016.4
20260503191830 63 165 2.0 8.0 0.00 0.00 0.00 41 1016.4
20260503191342 63 223 0.0 8.0 0.00 0.00 0.00 41 1016.4
20260503190844 63 212 3.0 9.0 0.00 0.00 0.00 42 1016.4
20260503190344 63 139 5.0 9.0 0.00 0.00 0.00 40 1016.4
20260503185829 64 164 3.0 7.0 0.00 0.00 0.00 40 1016.4
20260503185330 63 100 2.0 6.0 0.00 0.00 0.00 40 1016.4
20260503184829 63 84 4.0 8.0 0.00 0.00 0.00 39 1016.4
20260503184335 64 185 2.0 8.0 0.00 0.00 0.00 38 1016.4
20260503183840 64 285 3.0 7.0 0.00 0.00 0.00 41 1016.4
20260503183338 64 131 3.0 6.0 0.00 0.00 0.00 41 1016.8
20260503182844 63 123 2.0 5.0 0.00 0.00 0.00 41 1016.8
20260503182345 63 168 2.0 5.0 0.00 0.00 0.00 39 1016.8
20260503181844 63 193 2.0 5.0 0.00 0.00 0.00 42 1016.9
20260503181336 63 215 3.0 5.0 0.00 0.00 0.00 41 1016.9
20260503180858 62 107 1.0 6.0 0.00 0.00 0.00 42 1016.9
20260503180339 62 236 4.0 6.0 0.00 0.00 0.00 40 1017.0
20260503175904 62 66 2.0 6.0 0.00 0.00 0.00 40 1017.0
20260503175345 62 148 3.0 6.0 0.00 0.00 0.00 42 1017.0
20260503174828 62 209 1.0 3.0 0.00 0.00 0.00 42 1017.1
20260503174331 61 80 1.0 4.0 0.00 0.00 0.00 43 1017.1
20260503173852 61 125 2.0 5.0 0.00 0.00 0.00 43 1017.1
20260503173330 61 196 2.0 5.0 0.00 0.00 0.00 41 1017.4
20260503172843 61 160 1.0 6.0 0.00 0.00 0.00 43 1017.4
20260503172345 60 121 2.0 6.0 0.00 0.00 0.00 46 1017.4
20260503171844 60 128 3.0 5.0 0.00 0.00 0.00 46 1017.5
20260503171327 60 203 3.0 5.0 0.00 0.00 0.00 47 1017.5
20260503170829 59 200 0.0 5.0 0.00 0.00 0.00 47 1017.5
20260503170329 58 226 1.0 6.0 0.00 0.00 0.00 48 1017.9
20260503150841 56 209 2.0 4.0 0.00 0.00 0.00 53 1018.7
20260503150342 56 71 0.0 0.0 0.00 0.00 0.00 57 1018.7
20260503131350 42 311 0.0 0.0 0.00 0.00 0.00 86 1018.6
20260503130832 42 311 0.0 0.0 0.00 0.00 0.00 87 1018.6
20260503130335 41 311 0.0 0.0 0.00 0.00 0.00 88 1018.6
20260503110826 34 311 0.0 0.0 0.00 0.00 0.00 94 1017.9
20260503110350 34 311 0.0 0.0 0.00 0.00 0.00 93 1017.5
20260503090330 36 316 0.0 0.0 0.00 0.00 0.00 91 1016.4
20260503081339 36 316 0.0 0.0 0.00 0.00 0.00 89 1015.9
20260503080840 36 316 0.0 0.0 0.00 0.00 0.00 89 1015.9
20260503080339 37 316 0.0 0.0 0.00 0.00 0.00 89 1015.7
20260503072824 37 316 0.0 0.0 0.00 0.00 0.00 89 1015.5
20260503072328 37 316 0.0 0.0 0.00 0.00 0.00 88 1015.5
20260503071828 37 316 0.0 0.0 0.00 0.00 0.00 88 1015.5
20260503071342 37 206 0.0 0.0 0.00 0.00 0.00 87 1015.5
20260503070842 38 206 0.0 0.0 0.00 0.00 0.00 87 1015.5
20260503070342 38 206 0.0 0.0 0.00 0.00 0.00 86 1015.2
20260503060339 40 288 0.0 0.0 0.00 0.00 0.00 83 1015.3
20260503054848 40 288 0.0 0.0 0.00 0.00 0.00 82 1015.3
20260503054334 40 288 0.0 0.0 0.00 0.00 0.00 82 1015.3
20260503053835 40 288 0.0 2.0 0.00 0.00 0.00 82 1015.3
20260503053338 40 288 1.0 2.0 0.00 0.00 0.00 82 1015.5
20260503052826 41 289 0.0 0.0 0.00 0.00 0.00 81 1015.5
20260503052334 41 288 0.0 0.0 0.00 0.00 0.00 80 1015.5
20260503051831 41 288 0.0 0.0 0.00 0.00 0.00 79 1015.3
20260503051336 41 288 0.0 0.0 0.00 0.00 0.00 78 1015.3
20260503050840 42 288 0.0 0.0 0.00 0.00 0.00 78 1015.3
20260503050340 42 288 0.0 0.0 0.00 0.00 0.00 78 1015.2
20260503045847 42 288 0.0 0.0 0.00 0.00 0.00 78 1015.2
20260503045347 42 288 0.0 0.0 0.00 0.00 0.00 77 1015.2
20260503044825 42 288 0.0 0.0 0.00 0.00 0.00 76 1015.2
20260503044340 42 205 0.0 0.0 0.00 0.00 0.00 76 1015.2
20260503043825 42 173 0.0 0.0 0.00 0.00 0.00 78 1015.2
20260503043327 42 173 0.0 0.0 0.00 0.00 0.00 77 1015.2
20260503042840 42 173 0.0 0.0 0.00 0.00 0.00 76 1015.2
20260503042346 42 173 0.0 0.0 0.00 0.00 0.00 76 1015.2
20260503041845 42 173 0.0 0.0 0.00 0.00 0.00 75 1015.1
20260503041328 42 173 0.0 0.0 0.00 0.00 0.00 75 1015.1
20260503040829 42 173 0.0 0.0 0.00 0.00 0.00 74 1015.1
20260503040347 43 173 0.0 0.0 0.00 0.00 0.00 75 1014.9
20260503035838 43 173 0.0 0.0 0.00 0.00 0.00 74 1014.9
20260503035339 43 173 0.0 0.0 0.00 0.00 0.00 74 1014.9
20260503034838 43 173 0.0 0.0 0.00 0.00 0.00 73 1014.8
20260503034327 43 172 0.0 0.0 0.00 0.00 0.00 73 1014.8
20260503033827 43 173 0.0 0.0 0.00 0.00 0.00 74 1014.8
20260503033327 43 173 0.0 0.0 0.00 0.00 0.00 74 1014.7
20260503032844 43 173 0.0 0.0 0.00 0.00 0.00 73 1014.7
20260503032345 43 173 0.0 0.0 0.00 0.00 0.00 73 1014.7
20260503031844 44 173 0.0 0.0 0.00 0.00 0.00 72 1014.6
20260503031330 44 173 0.0 0.0 0.00 0.00 0.00 72 1014.6
20260503030832 45 172 0.0 0.0 0.00 0.00 0.00 70 1014.6
20260503030331 45 173 0.0 0.0 0.00 0.00 0.00 68 1014.5
20260503025838 45 172 0.0 0.0 0.00 0.00 0.00 68 1014.5
20260503025339 45 172 0.0 0.0 0.00 0.00 0.00 69 1014.5
20260503024843 45 173 0.0 0.0 0.00 0.00 0.00 67 1014.3
20260503024335 45 173 0.0 0.0 0.00 0.00 0.00 68 1014.3
20260503023858 45 172 0.0 0.0 0.00 0.00 0.00 68 1014.3
20260503023339 45 172 0.0 0.0 0.00 0.00 0.00 67 1014.2
20260503022826 46 173 0.0 0.0 0.00 0.00 0.00 65 1014.2
20260503022332 46 173 0.0 0.0 0.00 0.00 0.00 65 1014.2
20260503021830 46 172 0.0 0.0 0.00 0.00 0.00 64 1014.1
20260503021342 47 173 0.0 0.0 0.00 0.00 0.00 65 1014.1
20260503020844 47 173 0.0 0.0 0.00 0.00 0.00 64 1014.1
20260503020343 47 173 0.0 0.0 0.00 0.00 0.00 63 1014.1
20260503015828 47 173 0.0 0.0 0.00 0.00 0.00 66 1014.1
20260503015329 47 172 0.0 0.0 0.00 0.00 0.00 65 1014.1
20260503014848 48 172 0.0 0.0 0.00 0.00 0.00 64 1014.0
20260503014340 48 172 0.0 0.0 0.00 0.00 0.00 63 1014.0
20260503013842 48 172 0.0 0.0 0.00 0.00 0.00 63 1014.0
20260503013324 49 167 0.0 0.0 0.00 0.00 0.00 63 1013.7
20260503012839 49 167 0.0 0.0 0.00 0.00 0.00 63 1013.7
20260503012341 49 167 0.0 2.0 0.00 0.00 0.00 61 1013.7
20260503011840 49 167 0.0 2.0 0.00 0.00 0.00 59 1013.5
20260503011327 50 167 0.0 2.0 0.00 0.00 0.00 59 1013.5
20260503010828 50 247 1.0 4.0 0.00 0.00 0.00 57 1013.5
20260503010328 50 360 1.0 4.0 0.00 0.00 0.00 55 1013.0
20260503005901 50 360 1.0 4.0 0.00 0.00 0.00 55 1013.0
20260503005340 50 360 0.0 6.0 0.00 0.00 0.00 54 1013.0
20260503004843 50 327 3.0 6.0 0.00 0.00 0.00 55 1013.0
20260503004327 50 251 1.0 4.0 0.00 0.00 0.00 58 1013.0
20260503003849 50 336 1.0 4.0 0.00 0.00 0.00 61 1013.0
20260503003330 50 236 0.0 0.0 0.00 0.00 0.00 62 1012.7
20260503002905 51 236 0.0 0.0 0.00 0.00 0.00 57 1012.7
20260503002344 51 236 0.0 0.0 0.00 0.00 0.00 52 1012.7
20260503001844 51 360 0.0 0.0 0.00 0.00 0.00 51 1012.5
20260503001330 52 13 0.0 0.0 0.00 0.00 0.00 52 1012.5
20260503000832 52 12 0.0 0.0 0.00 0.00 0.00 51 1012.5
20260503000332 52 15 0.0 0.0 0.00 0.00 0.00 54 1012.1
20260502235906 52 348 0.0 0.0 0.00 0.00 0.00 51 1012.1
20260502235327 53 349 0.0 1.0 0.00 0.00 0.00 49 1012.1
20260502234845 53 348 0.0 5.0 0.00 0.00 0.00 48 1011.9
20260502234327 53 348 3.0 5.0 0.00 0.00 0.00 47 1011.9
20260502233828 53 355 0.0 0.0 0.00 0.00 0.00 47 1011.9
20260502233327 54 360 0.0 6.0 0.00 0.00 0.00 46 1011.9
20260502232839 54 360 0.0 6.0 0.00 0.00 0.00 46 1011.9
20260502232342 54 348 1.0 5.0 0.00 0.00 0.00 47 1011.9
20260502231825 54 262 0.0 4.0 0.00 0.00 0.00 51 1011.8
20260502231330 54 257 1.0 5.0 0.00 0.00 0.00 47 1011.8
20260502230852 54 309 3.0 5.0 0.00 0.00 0.00 46 1011.8
20260502230331 54 360 1.0 4.0 0.00 0.00 0.00 47 1011.7
20260502225836 54 11 1.0 4.0 0.00 0.00 0.00 49 1011.7
20260502225357 54 322 1.0 2.0 0.00 0.00 0.00 47 1011.7
20260502224834 54 322 1.0 5.0 0.00 0.00 0.00 47 1011.6
20260502224337 54 322 1.0 5.0 0.00 0.00 0.00 47 1011.6
20260502223858 54 330 1.0 3.0 0.00 0.00 0.00 48 1011.6
20260502223338 54 334 2.0 6.0 0.00 0.00 0.00 47 1011.3
20260502222848 55 355 1.0 6.0 0.00 0.00 0.00 48 1011.3
20260502222327 55 355 2.0 4.0 0.00 0.00 0.00 48 1011.3
20260502221827 55 11 1.0 5.0 0.00 0.00 0.00 48 1011.2